Time,TemperatureF,DewpointF,PressureIn,WindDirection,WindDirectionDegrees,WindSpeedMPH,WindSpeedGustMPH,Humidity,HourlyPrecipIn,Conditions,Clouds,dailyrainin,SoftwareType,DateUTC
2013-04-27 00:03:00,43.0,26.0,29.35,NNE,22,0.0,0.0,50,0.00,,,0.00,,2013-04-27 04:03:00,
2013-04-27 00:13:00,43.0,26.0,29.35,NNE,22,0.0,0.0,50,0.00,,,0.00,,2013-04-27 04:13:00,
2013-04-27 00:23:00,42.0,26.0,29.35,NNE,22,0.0,0.0,52,0.00,,,0.00,,2013-04-27 04:23:00,
2013-04-27 00:33:00,42.0,26.0,29.35,NNE,22,0.0,0.0,53,0.00,,,0.00,,2013-04-27 04:33:00,
2013-04-27 00:43:00,42.0,26.0,29.35,NNE,22,0.0,0.0,53,0.00,,,0.00,,2013-04-27 04:43:00,
2013-04-27 00:52:00,42.0,27.0,29.35,NNE,22,0.0,0.0,54,0.00,,,0.00,,2013-04-27 04:52:00,
2013-04-27 01:02:00,41.0,27.0,29.35,NNE,22,0.0,0.0,57,0.00,,,0.00,,2013-04-27 05:02:00,
2013-04-27 01:12:00,41.0,27.0,29.35,NNE,22,0.0,0.0,57,0.00,,,0.00,,2013-04-27 05:12:00,
2013-04-27 01:22:00,41.0,28.0,29.35,NNE,22,0.0,0.0,59,0.00,,,0.00,,2013-04-27 05:22:00,
2013-04-27 01:32:00,40.0,28.0,29.35,NNE,22,0.0,0.0,62,0.00,,,0.00,,2013-04-27 05:32:00,
2013-04-27 01:42:00,40.0,28.0,29.35,NNE,22,0.0,0.0,62,0.00,,,0.00,,2013-04-27 05:42:00,
2013-04-27 01:52:00,39.0,27.0,29.35,NNE,22,0.0,0.0,62,0.00,,,0.00,,2013-04-27 05:52:00,
2013-04-27 02:02:00,39.0,28.0,29.35,NNE,22,0.0,0.0,65,0.00,,,0.00,,2013-04-27 06:02:00,
2013-04-27 02:12:00,39.0,28.0,29.35,NNE,22,0.0,0.0,65,0.00,,,0.00,,2013-04-27 06:12:00,
2013-04-27 02:22:00,39.0,29.0,29.35,NNE,22,0.0,0.0,66,0.00,,,0.00,,2013-04-27 06:22:00,
2013-04-27 02:32:00,39.0,28.0,29.35,NNE,22,0.0,0.0,65,0.00,,,0.00,,2013-04-27 06:32:00,
2013-04-27 02:42:00,39.0,28.0,29.35,NNE,22,0.0,0.0,65,0.00,,,0.00,,2013-04-27 06:42:00,
2013-04-27 02:52:00,38.0,28.0,29.35,NNE,22,0.0,0.0,66,0.00,,,0.00,,2013-04-27 06:52:00,
2013-04-27 03:01:00,38.0,28.0,29.35,NNE,22,0.0,0.0,68,0.00,,,0.00,,2013-04-27 07:01:00,
2013-04-27 03:11:00,38.0,28.0,29.35,NNE,22,0.0,0.0,68,0.00,,,0.00,,2013-04-27 07:11:00,
2013-04-27 03:21:00,37.0,28.0,29.35,NNE,22,0.0,0.0,69,0.00,,,0.00,,2013-04-27 07:21:00,
2013-04-27 03:32:00,37.0,28.0,29.32,NNE,22,0.0,0.0,70,0.00,,,0.00,,2013-04-27 07:32:00,
2013-04-27 03:42:00,37.0,28.0,29.32,NNE,22,0.0,0.0,70,0.00,,,0.00,,2013-04-27 07:42:00,
2013-04-27 03:52:00,37.0,28.0,29.32,NNE,22,0.0,0.0,71,0.00,,,0.00,,2013-04-27 07:52:00,
2013-04-27 04:01:00,37.0,29.0,29.32,NNE,22,0.0,0.0,73,0.00,,,0.00,,2013-04-27 08:01:00,
2013-04-27 04:11:00,37.0,29.0,29.32,NNE,22,0.0,0.0,73,0.00,,,0.00,,2013-04-27 08:11:00,
2013-04-27 04:21:00,36.0,28.0,29.32,NNE,22,0.0,0.0,73,0.00,,,0.00,,2013-04-27 08:21:00,
2013-04-27 04:33:00,36.0,29.0,29.32,NNE,22,0.0,0.0,74,0.00,,,0.00,,2013-04-27 08:33:00,
2013-04-27 04:42:00,36.0,29.0,29.32,NNE,22,0.0,0.0,74,0.00,,,0.00,,2013-04-27 08:42:00,
2013-04-27 04:52:00,36.0,29.0,29.32,NNE,22,0.0,0.0,74,0.00,,,0.00,,2013-04-27 08:52:00,
2013-04-27 05:01:00,36.0,29.0,29.32,NNE,22,0.0,0.0,75,0.00,,,0.00,,2013-04-27 09:01:00,
2013-04-27 05:11:00,36.0,29.0,29.32,NNE,22,0.0,0.0,75,0.00,,,0.00,,2013-04-27 09:11:00,
2013-04-27 05:22:00,35.0,28.0,29.32,NNE,22,0.0,0.0,76,0.00,,,0.00,,2013-04-27 09:22:00,
2013-04-27 05:33:00,35.0,28.0,29.32,NNE,22,0.0,0.0,76,0.00,,,0.00,,2013-04-27 09:33:00,
2013-04-27 05:42:00,35.0,28.0,29.32,NNE,22,0.0,0.0,76,0.00,,,0.00,,2013-04-27 09:42:00,
2013-04-27 05:53:00,35.0,29.0,29.32,NNE,22,0.0,0.0,77,0.00,,,0.00,,2013-04-27 09:53:00,
2013-04-27 06:03:00,34.0,28.0,29.31,NNE,22,0.0,0.0,77,0.00,,,0.00,,2013-04-27 10:03:00,
2013-04-27 06:12:00,34.0,28.0,29.31,NNE,22,0.0,0.0,77,0.00,,,0.00,,2013-04-27 10:12:00,
2013-04-27 06:22:00,34.0,28.0,29.31,NNE,22,0.0,0.0,78,0.00,,,0.00,,2013-04-27 10:22:00,
2013-04-27 06:33:00,34.0,28.0,29.31,NNE,22,0.0,0.0,78,0.00,,,0.00,,2013-04-27 10:33:00,
2013-04-27 06:42:00,34.0,28.0,29.31,NNE,22,0.0,0.0,78,0.00,,,0.00,,2013-04-27 10:42:00,
2013-04-27 06:52:00,34.0,28.0,29.31,NW,315,0.0,0.0,78,0.00,,,0.00,,2013-04-27 10:52:00,
2013-04-27 07:02:00,34.0,28.0,29.31,NNW,337,0.0,0.0,79,0.00,,,0.00,,2013-04-27 11:02:00,
2013-04-27 07:12:00,34.0,28.0,29.31,NNW,337,0.0,0.0,80,0.00,,,0.00,,2013-04-27 11:12:00,
2013-04-27 07:22:00,34.0,28.0,29.31,NNW,337,0.0,0.0,80,0.00,,,0.00,,2013-04-27 11:22:00,
2013-04-27 07:32:00,36.0,31.0,29.31,NNW,337,0.0,0.0,81,0.00,,,0.00,,2013-04-27 11:32:00,
2013-04-27 07:42:00,36.0,31.0,29.31,NNW,337,0.0,0.0,81,0.00,,,0.00,,2013-04-27 11:42:00,
2013-04-27 07:52:00,38.0,33.0,29.31,NNW,337,0.0,0.0,82,0.00,,,0.00,,2013-04-27 11:52:00,
2013-04-27 08:01:00,42.0,38.0,29.32,NNW,337,0.0,0.0,84,0.00,,,0.00,,2013-04-27 12:01:00,
2013-04-27 08:11:00,42.0,38.0,29.32,NNW,337,0.0,0.0,84,0.00,,,0.00,,2013-04-27 12:11:00,
2013-04-27 08:22:00,45.0,40.0,29.32,NNW,337,0.0,0.0,81,0.00,,,0.00,,2013-04-27 12:22:00,
2013-04-27 08:32:00,48.0,37.0,29.32,NNW,337,0.0,0.0,66,0.00,,,0.00,,2013-04-27 12:32:00,
2013-04-27 08:42:00,48.0,37.0,29.32,NNW,337,0.0,0.0,66,0.00,,,0.00,,2013-04-27 12:42:00,
2013-04-27 08:52:00,50.0,37.0,29.32,NNW,337,0.0,0.0,60,0.00,,,0.00,,2013-04-27 12:52:00,
2013-04-27 09:02:00,50.0,35.0,29.35,NNW,337,0.0,0.0,57,0.00,,,0.00,,2013-04-27 13:02:00,
2013-04-27 09:12:00,50.0,35.0,29.35,NNW,337,0.0,0.0,57,0.00,,,0.00,,2013-04-27 13:12:00,
2013-04-27 09:21:00,54.0,35.0,29.35,NNW,337,1.0,3.0,48,0.00,,,0.00,,2013-04-27 13:21:00,
2013-04-27 09:32:00,56.0,36.0,29.32,NNW,337,0.0,2.0,46,0.00,,,0.00,,2013-04-27 13:32:00,
2013-04-27 09:42:00,56.0,36.0,29.32,NNW,337,0.0,2.0,46,0.00,,,0.00,,2013-04-27 13:42:00,
2013-04-27 09:52:00,60.0,35.0,29.32,NNW,337,1.0,3.0,39,0.00,,,0.00,,2013-04-27 13:52:00,
2013-04-27 10:02:00,62.0,35.0,29.32,WSW,247,2.0,3.0,36,0.00,,,0.00,,2013-04-27 14:02:00,
2013-04-27 10:11:00,62.0,35.0,29.32,WSW,247,2.0,3.0,36,0.00,,,0.00,,2013-04-27 14:11:00,
2013-04-27 10:21:00,66.0,33.0,29.33,SSW,193,2.0,4.0,29,0.00,,,0.00,,2013-04-27 14:21:00,
2013-04-27 10:32:00,66.0,30.0,29.33,SW,214,2.0,4.0,26,0.00,,,0.00,,2013-04-27 14:32:00,
2013-04-27 10:42:00,66.0,30.0,29.33,SW,214,2.0,4.0,26,0.00,,,0.00,,2013-04-27 14:42:00,
2013-04-27 10:52:00,67.0,29.0,29.30,SW,226,2.0,6.0,24,0.00,,,0.00,,2013-04-27 14:52:00,
2013-04-27 11:01:00,69.0,30.0,29.30,ESE,104,3.0,4.0,23,0.00,,,0.00,,2013-04-27 15:01:00,
2013-04-27 11:12:00,69.0,30.0,29.30,ESE,104,3.0,4.0,23,0.00,,,0.00,,2013-04-27 15:12:00,
2013-04-27 11:22:00,69.0,29.0,29.30,South,186,3.0,5.0,22,0.00,,,0.00,,2013-04-27 15:22:00,
2013-04-27 11:33:00,70.0,29.0,29.30,East,100,3.0,6.0,22,0.00,,,0.00,,2013-04-27 15:33:00,
2013-04-27 11:43:00,70.0,29.0,29.30,East,100,3.0,6.0,22,0.00,,,0.00,,2013-04-27 15:43:00,
2013-04-27 11:52:00,71.0,30.0,29.30,South,176,2.0,4.0,22,0.00,,,0.00,,2013-04-27 15:52:00,
2013-04-27 12:03:00,72.0,26.0,29.30,SSE,150,4.0,10.0,18,0.00,,,0.00,,2013-04-27 16:03:00,
2013-04-27 12:13:00,72.0,26.0,29.30,SSE,150,4.0,10.0,18,0.00,,,0.00,,2013-04-27 16:13:00,
2013-04-27 12:22:00,72.0,23.0,29.30,SSE,152,4.0,7.0,16,0.00,,,0.00,,2013-04-27 16:22:00,
2013-04-27 12:33:00,73.0,24.0,29.27,SSE,161,3.0,8.0,16,0.00,,,0.00,,2013-04-27 16:33:00,
2013-04-27 12:42:00,73.0,24.0,29.27,SSE,161,3.0,8.0,16,0.00,,,0.00,,2013-04-27 16:42:00,
2013-04-27 12:52:00,73.0,24.0,29.27,SE,146,3.0,6.0,16,0.00,,,0.00,,2013-04-27 16:52:00,
2013-04-27 13:02:00,75.0,27.0,29.27,SW,215,2.0,6.0,17,0.00,,,0.00,,2013-04-27 17:02:00,
2013-04-27 13:12:00,75.0,27.0,29.27,SW,215,2.0,6.0,17,0.00,,,0.00,,2013-04-27 17:12:00,
2013-04-27 13:22:00,75.0,27.0,29.27,SW,215,2.0,6.0,17,0.00,,,0.00,,2013-04-27 17:22:00,
2013-04-27 13:32:00,75.0,24.0,29.27,SSW,205,3.0,9.0,15,0.00,,,0.00,,2013-04-27 17:32:00,
2013-04-27 13:42:00,75.0,24.0,29.27,SSW,205,3.0,9.0,15,0.00,,,0.00,,2013-04-27 17:42:00,
2013-04-27 13:53:00,76.0,25.0,29.24,South,191,3.0,8.0,15,0.00,,,0.00,,2013-04-27 17:53:00,
2013-04-27 14:02:00,76.0,25.0,29.24,West,266,3.0,6.0,15,0.00,,,0.00,,2013-04-27 18:02:00,
2013-04-27 14:12:00,76.0,25.0,29.24,West,266,3.0,6.0,15,0.00,,,0.00,,2013-04-27 18:12:00,
2013-04-27 14:22:00,78.0,27.0,29.24,SSW,200,3.0,8.0,15,0.00,,,0.00,,2013-04-27 18:22:00,
2013-04-27 14:32:00,76.0,25.0,29.24,South,175,5.0,9.0,15,0.00,,,0.00,,2013-04-27 18:32:00,
2013-04-27 14:42:00,76.0,25.0,29.24,South,175,5.0,9.0,15,0.00,,,0.00,,2013-04-27 18:42:00,
2013-04-27 14:52:00,77.0,26.0,29.24,South,181,4.0,6.0,15,0.00,,,0.00,,2013-04-27 18:52:00,
2013-04-27 15:02:00,77.0,26.0,29.22,SW,217,4.0,9.0,15,0.00,,,0.00,,2013-04-27 19:02:00,
2013-04-27 15:11:00,77.0,26.0,29.22,SW,217,4.0,9.0,15,0.00,,,0.00,,2013-04-27 19:11:00,
2013-04-27 15:22:00,78.0,27.0,29.22,SSE,155,5.0,6.0,15,0.00,,,0.00,,2013-04-27 19:22:00,
2013-04-27 15:32:00,78.0,27.0,29.22,SSE,161,4.0,8.0,15,0.00,,,0.00,,2013-04-27 19:32:00,
2013-04-27 15:42:00,78.0,27.0,29.22,SSE,161,4.0,8.0,15,0.00,,,0.00,,2013-04-27 19:42:00,
2013-04-27 15:52:00,78.0,27.0,29.22,ESE,114,3.0,8.0,15,0.00,,,0.00,,2013-04-27 19:52:00,
2013-04-27 16:02:00,78.0,27.0,29.22,SW,228,3.0,7.0,15,0.00,,,0.00,,2013-04-27 20:02:00,
2013-04-27 16:11:00,78.0,27.0,29.22,SW,228,3.0,7.0,15,0.00,,,0.00,,2013-04-27 20:11:00,
2013-04-27 16:22:00,78.0,27.0,29.22,ESE,118,3.0,6.0,15,0.00,,,0.00,,2013-04-27 20:22:00,
2013-04-27 16:32:00,78.0,27.0,29.22,SW,218,3.0,7.0,15,0.00,,,0.00,,2013-04-27 20:32:00,
2013-04-27 16:42:00,78.0,27.0,29.22,SW,218,3.0,7.0,15,0.00,,,0.00,,2013-04-27 20:42:00,
2013-04-27 16:52:00,78.0,27.0,29.19,SE,139,3.0,6.0,15,0.00,,,0.00,,2013-04-27 20:52:00,
2013-04-27 17:02:00,78.0,27.0,29.19,SSE,151,4.0,6.0,15,0.00,,,0.00,,2013-04-27 21:02:00,
2013-04-27 17:12:00,78.0,27.0,29.19,SSE,151,4.0,6.0,15,0.00,,,0.00,,2013-04-27 21:12:00,
2013-04-27 17:21:00,78.0,27.0,29.19,South,190,3.0,5.0,15,0.00,,,0.00,,2013-04-27 21:21:00,
2013-04-27 17:33:00,78.0,27.0,29.19,SE,126,4.0,7.0,15,0.00,,,0.00,,2013-04-27 21:33:00,
2013-04-27 17:43:00,78.0,27.0,29.19,SE,126,4.0,7.0,15,0.00,,,0.00,,2013-04-27 21:43:00,
2013-04-27 17:53:00,76.0,25.0,29.18,ESE,111,4.0,6.0,15,0.00,,,0.00,,2013-04-27 21:53:00,
2013-04-27 18:03:00,76.0,25.0,29.18,SE,126,4.0,8.0,15,0.00,,,0.00,,2013-04-27 22:03:00,
2013-04-27 18:13:00,76.0,25.0,29.18,SE,126,4.0,8.0,15,0.00,,,0.00,,2013-04-27 22:13:00,
2013-04-27 18:23:00,75.0,26.0,29.15,SSE,152,4.0,7.0,16,0.00,,,0.00,,2013-04-27 22:23:00,
2013-04-27 18:32:00,75.0,26.0,29.15,SSW,206,3.0,5.0,16,0.00,,,0.00,,2013-04-27 22:32:00,
2013-04-27 18:42:00,75.0,26.0,29.15,SSW,206,3.0,5.0,16,0.00,,,0.00,,2013-04-27 22:42:00,
2013-04-27 18:53:00,75.0,26.0,29.15,SSW,197,3.0,5.0,16,0.00,,,0.00,,2013-04-27 22:53:00,
2013-04-27 19:02:00,74.0,25.0,29.15,SE,142,3.0,5.0,16,0.00,,,0.00,,2013-04-27 23:02:00,
2013-04-27 19:12:00,74.0,25.0,29.15,SE,142,3.0,5.0,16,0.00,,,0.00,,2013-04-27 23:12:00,
2013-04-27 19:22:00,73.0,24.0,29.15,SE,131,2.0,4.0,16,0.00,,,0.00,,2013-04-27 23:22:00,
2013-04-27 19:32:00,72.0,25.0,29.15,SSE,157,1.0,3.0,17,0.00,,,0.00,,2013-04-27 23:32:00,
2013-04-27 19:42:00,72.0,25.0,29.15,SSE,157,1.0,3.0,17,0.00,,,0.00,,2013-04-27 23:42:00,
2013-04-27 19:52:00,71.0,24.0,29.15,SSE,157,0.0,3.0,17,0.00,,,0.00,,2013-04-27 23:52:00,
2013-04-27 20:01:00,69.0,22.0,29.15,SSE,157,0.0,0.0,17,0.00,,,0.00,,2013-04-28 00:01:00,
2013-04-27 20:12:00,69.0,22.0,29.15,SSE,157,0.0,0.0,17,0.00,,,0.00,,2013-04-28 00:12:00,
2013-04-27 20:21:00,67.0,21.0,29.16,SSE,157,0.0,0.0,17,0.00,,,0.00,,2013-04-28 00:21:00,
2013-04-27 20:32:00,66.0,20.0,29.16,WSW,247,0.0,3.0,17,0.00,,,0.00,,2013-04-28 00:32:00,
2013-04-27 20:43:00,66.0,20.0,29.16,WSW,247,0.0,3.0,17,0.00,,,0.00,,2013-04-28 00:43:00,
2013-04-27 20:52:00,65.0,24.0,29.16,WNW,292,0.0,3.0,21,0.00,,,0.00,,2013-04-28 00:52:00,
2013-04-27 21:02:00,63.0,22.0,29.16,WNW,292,1.0,2.0,21,0.00,,,0.00,,2013-04-28 01:02:00,
2013-04-27 21:11:00,63.0,22.0,29.16,WNW,292,1.0,2.0,21,0.00,,,0.00,,2013-04-28 01:11:00,
2013-04-27 21:22:00,62.0,25.0,29.13,WNW,292,0.0,0.0,24,0.00,,,0.00,,2013-04-28 01:22:00,
2013-04-27 21:32:00,60.0,24.0,29.13,WNW,292,0.0,0.0,25,0.00,,,0.00,,2013-04-28 01:32:00,
2013-04-27 21:42:00,60.0,24.0,29.13,WNW,292,0.0,0.0,25,0.00,,,0.00,,2013-04-28 01:42:00,
2013-04-27 21:52:00,58.0,26.0,29.13,WNW,292,0.0,0.0,29,0.00,,,0.00,,2013-04-28 01:52:00,
2013-04-27 22:02:00,58.0,29.0,29.13,WNW,292,0.0,0.0,33,0.00,,,0.00,,2013-04-28 02:02:00,
2013-04-27 22:12:00,58.0,29.0,29.13,WNW,292,0.0,0.0,33,0.00,,,0.00,,2013-04-28 02:12:00,
2013-04-27 22:22:00,57.0,30.0,29.13,WNW,292,0.0,0.0,35,0.00,,,0.00,,2013-04-28 02:22:00,
2013-04-27 22:32:00,55.0,30.0,29.17,WNW,292,0.0,0.0,38,0.00,,,0.00,,2013-04-28 02:32:00,
2013-04-27 22:42:00,55.0,30.0,29.17,WNW,292,0.0,0.0,38,0.00,,,0.00,,2013-04-28 02:42:00,
2013-04-27 22:52:00,55.0,31.0,29.17,WNW,292,0.0,0.0,39,0.00,,,0.00,,2013-04-28 02:52:00,
2013-04-27 23:01:00,54.0,33.0,29.14,WNW,292,0.0,0.0,44,0.00,,,0.00,,2013-04-28 03:01:00,
2013-04-27 23:11:00,54.0,33.0,29.14,WNW,292,0.0,0.0,44,0.00,,,0.00,,2013-04-28 03:11:00,
2013-04-27 23:21:00,53.0,33.0,29.14,WNW,292,0.0,0.0,46,0.00,,,0.00,,2013-04-28 03:21:00,
2013-04-27 23:33:00,53.0,34.0,29.14,WNW,292,0.0,0.0,48,0.00,,,0.00,,2013-04-28 03:33:00,
2013-04-27 23:43:00,53.0,34.0,29.14,WNW,292,0.0,0.0,48,0.00,,,0.00,,2013-04-28 03:43:00,
2013-04-27 23:53:00,52.0,34.0,29.14,NW,307,2.0,3.0,51,0.00,,,0.00,,2013-04-28 03:53:00,